This demonstration page uses our WeatherBlox Daily Observations layout. Learn more.

Left ArrowRight Arrow

Hourly Observations for September 5, 2020

Temp ( °F °C ) Dew Point ( °F °C ) Humidity (%) Winds ( mph kmh ) Pressure ( in mb ) Visibility ( mi km ) Precip ( " mm )
12:15 am 00:15 Clear 59 15.2 54 12.1 82 82 N N/A 30.19 1022 10 16 N/A
12:35 am 00:35 Clear 61 16.2 54 12 76 76 N N/A 30.19 1022 10 16 N/A
12:55 am 00:55 Clear 60 15.5 54 12 80 80 N N/A 30.18 1022 10 16 N/A
1:15 am 01:15 Clear 60 15.8 54 12.4 80 80 SE 3 6 30.20 1023 10 16 N/A
1:35 am 01:35 Clear 61 16.2 55 12.6 79 79 SSE 3 6 30.20 1023 10 16 N/A
1:55 am 01:55 Clear 62 16.5 55 12.7 78 78 SSE 6 9 30.21 1023 10 16 N/A
2:15 am 02:15 Clear 62 16.5 55 12.8 79 79 SSE 5 7 30.21 1023 10 16 N/A
2:35 am 02:35 Clear 62 16.6 55 12.9 79 79 SSE 5 7 30.20 1023 10 16 N/A
2:55 am 02:55 Clear 61 16.3 55 12.8 80 80 SSE 3 6 30.20 1023 10 16 N/A
3:15 am 03:15 Clear 61 16.2 55 13 81 81 S 3 6 30.19 1022 10 16 N/A
3:35 am 03:35 Clear 61 16 55 13 83 83 SSE 5 7 30.18 1022 10 16 N/A
3:55 am 03:55 Clear 61 16.2 55 13 81 81 S 3 6 30.18 1022 10 16 N/A
4:15 am 04:15 Clear 61 16 55 13 83 83 S 5 7 30.18 1022 10 16 N/A
4:35 am 04:35 Clear 61 16.2 55 13 81 81 S 5 7 30.18 1022 10 16 N/A
4:55 am 04:55 Clear 60 15.8 55 12.8 82 82 S 3 6 30.17 1022 10 16 N/A
5:15 am 05:15 Clear 60 15.8 55 12.7 82 82 N N/A 30.17 1022 10 16 N/A
5:35 am 05:35 Clear 60 15.7 55 12.7 82 82 N N/A 30.17 1022 10 16 N/A
5:55 am 05:55 Clear 61 16 55 12.9 82 82 N N/A 30.18 1022 10 16 N/A
6:15 am 06:15 Clear 60 15.8 55 12.8 82 82 SSE 3 6 30.17 1022 10 16 N/A
6:35 am 06:35 Clear 60 15.7 55 13 84 84 SSE 5 7 30.17 1022 10 16 N/A
6:55 am 06:55 Clear 60 15.3 55 13 86 86 SSE 6 9 30.18 1022 10 16 N/A
7:15 am 07:15 Sunny 59 15.2 55 12.9 86 86 SSE 5 7 30.18 1022 10 16 N/A
7:35 am 07:35 Sunny 59 15.2 55 13 87 87 N N/A 30.20 1023 10 16 N/A
7:55 am 07:55 Sunny 61 15.9 57 13.7 87 87 S 5 7 30.19 1022 10 16 N/A
8:15 am 08:15 Sunny 63 17 58 14.4 85 85 S 5 7 30.19 1022 10 16 N/A
8:35 am 08:35 Sunny 66 18.7 59 15.2 80 80 S 5 7 30.18 1022 10 16 N/A
8:55 am 08:55 Sunny 68 19.9 61 16.1 79 79 S 3 6 30.17 1022 10 16 N/A
9:15 am 09:15 Sunny 70 21.1 62 16.6 76 76 S 6 9 30.16 1021 10 16 N/A
9:35 am 09:35 Sunny 72 22.3 63 17.2 73 73 S 8 13 30.14 1021 10 16 N/A
9:55 am 09:55 Sunny 74 23.1 63 17 69 69 S 8 13 30.14 1021 10 16 N/A
10:15 am 10:15 Sunny 76 24.2 63 17.4 66 66 S 8 13 30.13 1020 10 16 N/A
10:35 am 10:35 Sunny 78 25.4 64 17.6 62 62 S 8 13 30.11 1020 10 16 N/A
10:55 am 10:55 Sunny 80 26.5 64 17.8 59 59 S 7 11 30.10 1019 10 16 N/A
11:15 am 11:15 Sunny 81 27.4 64 17.8 56 56 SSW 7 11 30.10 1019 10 16 N/A
11:35 am 11:35 Sunny 83 28.2 64 18 54 54 S 7 11 30.09 1019 10 16 N/A
11:55 am 11:55 Sunny 85 29.6 64 17.9 49 49 SSW 8 13 30.07 1018 10 16 N/A
12:15 pm 12:15 Sunny 88 31 62 16.9 43 43 SSW 10 17 30.05 1018 10 16 N/A
12:35 pm 12:35 Sunny 88 31.1 62 16.9 43 43 SSW 13 20 30.04 1017 10 16 N/A
12:55 pm 12:55 Sunny 89 31.7 62 16.8 41 41 S 8 13 30.03 1017 10 16 N/A
1:15 pm 13:15 Sunny 91 32.7 61 16.3 37 37 SSW 13 20 30.01 1016 10 16 N/A
1:35 pm 13:35 Sunny 92 33.4 62 16.5 36 36 S 12 19 30.00 1016 10 16 N/A
1:55 pm 13:55 Sunny 93 33.8 61 16.2 35 35 S 9 15 29.99 1015 10 16 N/A
2:15 pm 14:15 Sunny 94 34.2 62 16.4 34 34 S 13 20 29.97 1015 10 16 N/A
2:35 pm 14:35 Sunny 95 35 60 15.6 31 31 SSW 15 24 29.97 1015 10 16 N/A
2:55 pm 14:55 Sunny 96 35.4 60 15.3 30 30 SSW 12 19 29.96 1014 10 16 N/A
3:15 pm 15:15 Sunny 96 35.6 59 15.1 29 29 S 12 19 29.95 1014 10 16 N/A
3:35 pm 15:35 Sunny 97 35.9 59 14.8 28 28 S 15 24 29.94 1014 10 16 N/A
3:55 pm 15:55 Sunny 97 36.2 58 14.5 27 27 SSW 10 17 29.93 1014 10 16 N/A
4:15 pm 16:15 Sunny 97 36 57 13.8 26 26 S 16 26 29.90 1013 10 16 N/A
4:35 pm 16:35 Sunny 97 36.1 56 13.6 26 26 S 14 22 29.90 1013 10 16 N/A
4:55 pm 16:55 Sunny 97 35.9 57 13.9 27 27 S 13 20 29.89 1012 10 16 N/A
5:15 pm 17:15 Sunny 97 36 57 14 27 27 SSW 17 28 29.87 1012 10 16 N/A
5:35 pm 17:35 Sunny 96 35.4 58 14.6 29 29 S 15 24 29.88 1012 10 16 N/A
5:55 pm 17:55 Sunny 95 34.9 60 15.5 31 31 S 15 24 29.87 1012 10 16 N/A
6:15 pm 18:15 Sunny 94 34.4 60 15.6 32 32 S 13 20 29.87 1012 10 16 N/A
6:35 pm 18:35 Sunny 93 34 60 15.3 32 32 S 14 22 29.88 1012 10 16 N/A
6:55 pm 18:55 Sunny 92 33.2 60 15.7 35 35 S 15 24 29.88 1012 10 16 N/A
7:15 pm 19:15 Sunny 91 32.5 60 15.6 36 36 S 12 19 29.88 1012 10 16 N/A
7:35 pm 19:35 Sunny 89 31.5 60 15.5 38 38 S 13 20 29.89 1012 10 16 N/A
7:55 pm 19:55 Sunny 87 30.4 60 15.7 41 41 S 12 19 29.88 1012 10 16 N/A
8:15 pm 20:15 Clear 85 29.6 60 15.3 42 42 S 10 17 29.89 1012 10 16 N/A
8:35 pm 20:35 Clear 83 28.5 60 15.4 45 45 S 10 17 29.90 1012 10 16 N/A
8:55 pm 20:55 Clear 82 27.9 59 15.1 46 46 S 9 15 29.90 1013 10 16 N/A
9:15 pm 21:15 Clear 81 27 60 15.6 50 50 S 10 17 29.91 1013 10 16 N/A
9:35 pm 21:35 Clear 80 26.7 61 16 52 52 S 12 19 29.91 1013 10 16 N/A
9:55 pm 21:55 Clear 80 26.5 61 16 53 53 S 12 19 29.91 1013 10 16 N/A
10:15 pm 22:15 Clear 79 26.2 60 15.7 52 52 S 12 19 29.93 1013 10 16 N/A
10:35 pm 22:35 Clear 79 26.1 60 15.5 52 52 S 13 20 29.92 1013 10 16 N/A
10:55 pm 22:55 Clear 79 26.2 60 15.3 51 51 S 14 22 29.92 1013 10 16 N/A
11:15 pm 23:15 Clear 79 25.9 59 15.2 52 52 S 13 20 29.91 1013 10 16 N/A
11:35 pm 23:35 Clear 77 25.1 60 15.4 55 55 S 13 20 29.92 1013 10 16 N/A
11:55 pm 23:55 Clear 76 24.7 60 15.5 57 57 S 13 20 29.91 1013 10 16 N/A

Powered by AerisWeather